Regional Weather Roundup
Issued by NWS

Home | Current Version | Previous Version | Text Only | Print | Product List | Glossary On
Versions: 1 2 3 4 5 6 7 8 9 10 11 12 13 14 15 16 17 18 19 20 21 22 23 24 25 26 27 28 29 30 31 32 33 34 35 36 37 38 39 40 41 42 43 44 45 46 47 48 49 50
000
ASCA42 TJSJ 292211
RWRPR
PUERTO RICO/U.S. VIRGIN ISLANDS HOURLY WEATHER ROUNDUP
NATIONAL WEATHER SERVICE SAN JUAN PR
600 PM AST THU JAN 29 2015

PRZ001-004-292300-
PUERTO RICO

CITY           SKY/WX    TMP DP  RH WIND       PRES   REMARKS
SAN JUAN LMM   PTCLDY    81  72  74 E8        29.98S
AGUADILLA      PTCLDY    79  70  73 E6        29.99S
CEIBA          CLEAR     79  70  73 E3        30.01R
$$

PRZ006-007-292300-
U.S. VIRGIN ISLANDS

CITY           SKY/WX    TMP DP  RH WIND       PRES   REMARKS
CHARLOTTE AMA  CLEAR     81  70  69 SE13      29.98
CHRISTIANSTED  CLEAR     79  68  69 E9        29.99R
$$

HOURLY WEATHER ROUNDUP FOR THE NEWS MEDIA

CITY           SKY/WX    TMP DP  RH WIND       PRES   REMARKS
MIAMI          MOSUNNY   70  51  51 E10       30.21R
ORLANDO        SUNNY     69  46  43 E7        30.22S
NEW YORK       CLOUDY    32  22  66 SE9       30.17F WCI  24
NEWARK         CLOUDY    31  21  66 VRB5      30.14F WCI  26
CHICAGO        CLOUDY    34  26  72 NW15G23   30.05R WCI  24
HARTFORD       CLEAR     30  18  60 S5        30.17F WCI  25
BOSTON         MOCLDY    28  20  71 E3        30.18F
DALLAS         PTSUNNY   64  36  35 N17G28    30.29R
PHILADELPHIA   CLOUDY    34  10  37 S8        30.13F WCI  27


USA.gov is the U.S. government's official web portal to all federal, state and local government web resources and services.